Terminal Aerodrome Forecast
Issued by NWS San Angelo, TX

Home | Current Version | Previous Version | Text Only | Print | Product List | Glossary On
Versions: 1 2 3 4 5 6 7 8 9 10 11 12 13 14 15 16 17 18 19
000
FTUS44 KSJT 261100
TAFABI
TAF
KABI 261122Z 2612/2712 19016G26KT P6SM BKN250
     FM270000 19006KT P6SM SCT250
     FM270400 34010KT P6SM SCT250
     FM270900 36012KT P6SM BKN070=

USA.gov is the U.S. government's official web portal to all federal, state and local government web resources and services.